TimeCST,TemperatureF,Dew PointF,Humidity,Sea Level PressureIn,VisibilityMPH,Wind Direction,Wind SpeedMPH,Gust SpeedMPH,PrecipitationIn,Events,Conditions,WindDirDegrees,DateUTC
12:15 AM,30.4,26.6,86,29.96,7.0,Calm,Calm,-,N/A,,Mostly Cloudy,0,2012-12-08 06:15:00
12:35 AM,29.8,25.9,85,29.96,7.0,Calm,Calm,-,N/A,,Mostly Cloudy,0,2012-12-08 06:35:00
12:55 AM,30.7,27.1,86,29.96,7.0,Calm,Calm,-,N/A,,Scattered Clouds,0,2012-12-08 06:55:00
1:15 AM,30.0,25.7,84,29.96,10.0,Calm,Calm,-,N/A,,Clear,0,2012-12-08 07:15:00
1:35 AM,28.6,24.4,84,29.96,10.0,North,5.8,-,N/A,,Clear,350,2012-12-08 07:35:00
1:55 AM,28.4,24.3,84,29.96,10.0,North,5.8,-,N/A,,Clear,350,2012-12-08 07:55:00
2:15 AM,27.3,23.0,84,29.97,10.0,North,6.9,-,N/A,,Clear,350,2012-12-08 08:15:00
2:35 AM,27.5,23.5,85,29.98,10.0,North,8.1,-,N/A,,Clear,360,2012-12-08 08:35:00
2:55 AM,28.0,24.1,85,29.98,7.0,North,8.1,-,N/A,,Clear,350,2012-12-08 08:55:00
3:15 AM,27.5,24.1,87,29.98,7.0,North,5.8,-,N/A,,Clear,360,2012-12-08 09:15:00
3:35 AM,27.9,24.6,88,29.98,7.0,North,8.1,-,N/A,,Clear,360,2012-12-08 09:35:00
3:55 AM,27.3,24.3,88,29.98,5.0,North,6.9,-,N/A,,Scattered Clouds,360,2012-12-08 09:55:00
4:15 AM,29.3,26.2,88,29.98,4.0,North,8.1,-,N/A,,Overcast,10,2012-12-08 10:15:00
4:35 AM,29.5,26.6,89,29.99,3.0,North,6.9,-,N/A,,Overcast,10,2012-12-08 10:35:00
4:55 AM,30.2,26.6,86,29.98,2.0,North,8.1,-,N/A,,Overcast,10,2012-12-08 10:55:00
5:15 AM,29.7,27.0,90,29.97,2.0,North,6.9,-,N/A,,Overcast,10,2012-12-08 11:15:00
5:35 AM,30.0,27.5,90,29.97,3.0,NNE,5.8,-,N/A,,Overcast,20,2012-12-08 11:35:00
5:55 AM,30.2,27.5,90,29.97,2.5,NNE,9.2,-,N/A,,Overcast,30,2012-12-08 11:55:00
6:15 AM,30.2,27.5,90,29.97,2.5,NE,9.2,-,N/A,,Overcast,40,2012-12-08 12:15:00
6:35 AM,30.2,27.5,90,29.97,2.5,NE,8.1,-,N/A,,Overcast,50,2012-12-08 12:35:00
6:55 AM,30.2,27.5,90,29.98,2.5,ENE,5.8,-,N/A,,Overcast,60,2012-12-08 12:55:00
7:15 AM,30.2,27.9,91,29.98,2.5,NE,6.9,-,N/A,,Overcast,40,2012-12-08 13:15:00
7:35 AM,30.2,27.7,90,29.98,1.2,ENE,5.8,-,N/A,,Overcast,60,2012-12-08 13:35:00
7:55 AM,30.0,27.5,90,29.98,3.0,ENE,6.9,-,N/A,,Overcast,60,2012-12-08 13:55:00
8:15 AM,30.2,27.5,90,29.99,2.0,East,4.6,-,N/A,,Overcast,80,2012-12-08 14:15:00
8:35 AM,30.2,27.9,91,29.99,2.5,ENE,6.9,-,N/A,,Overcast,60,2012-12-08 14:35:00
8:55 AM,30.7,28.2,90,29.99,2.0,East,6.9,-,N/A,,Overcast,80,2012-12-08 14:55:00
9:15 AM,31.1,28.4,90,30.00,1.8,East,5.8,-,N/A,,Overcast,80,2012-12-08 15:15:00
9:35 AM,31.5,28.4,88,30.00,1.8,East,8.1,-,N/A,,Overcast,90,2012-12-08 15:35:00
9:55 AM,32.0,28.9,88,29.99,2.0,East,8.1,-,N/A,,Overcast,100,2012-12-08 15:55:00
10:15 AM,32.5,29.5,88,29.99,2.5,East,8.1,-,N/A,,Overcast,80,2012-12-08 16:15:00
10:35 AM,33.8,29.7,85,29.98,3.0,East,8.1,-,N/A,,Overcast,90,2012-12-08 16:35:00
10:55 AM,34.7,29.5,81,29.98,4.0,ENE,8.1,-,N/A,,Haze,70,2012-12-08 16:55:00
11:15 AM,35.6,29.1,77,29.98,5.0,ENE,8.1,-,N/A,,Haze,70,2012-12-08 17:15:00
11:35 AM,36.5,28.6,73,29.96,7.0,East,6.9,-,N/A,,Overcast,80,2012-12-08 17:35:00
11:55 AM,36.9,28.4,71,29.97,7.0,East,5.8,-,N/A,,Overcast,80,2012-12-08 17:55:00
12:15 PM,37.8,28.4,69,29.95,10.0,East,5.8,-,N/A,,Overcast,90,2012-12-08 18:15:00
12:35 PM,38.1,28.9,70,29.93,10.0,East,8.1,-,N/A,,Overcast,100,2012-12-08 18:35:00
12:55 PM,38.7,29.1,69,29.92,7.0,East,9.2,-,N/A,,Overcast,100,2012-12-08 18:55:00
1:15 PM,39.2,29.3,68,29.91,10.0,ESE,9.2,-,N/A,,Overcast,120,2012-12-08 19:15:00
1:35 PM,39.2,29.8,69,29.90,10.0,ESE,6.9,-,N/A,,Overcast,120,2012-12-08 19:35:00
1:55 PM,39.7,29.8,68,29.89,10.0,ESE,9.2,-,N/A,,Overcast,120,2012-12-08 19:55:00
2:15 PM,40.1,30.2,68,29.88,7.0,SE,9.2,-,N/A,,Overcast,130,2012-12-08 20:15:00
2:35 PM,40.3,30.7,69,29.87,10.0,SE,9.2,-,N/A,,Overcast,140,2012-12-08 20:35:00
2:55 PM,40.3,30.2,67,29.88,10.0,SE,8.1,-,N/A,,Overcast,130,2012-12-08 20:55:00
3:15 PM,40.1,29.5,66,29.87,10.0,SE,8.1,-,N/A,,Overcast,130,2012-12-08 21:15:00
3:35 PM,40.1,29.3,65,29.87,10.0,SE,9.2,-,N/A,,Overcast,130,2012-12-08 21:35:00
3:55 PM,40.1,29.8,67,29.86,10.0,ESE,8.1,-,N/A,,Overcast,120,2012-12-08 21:55:00
4:15 PM,40.1,30.0,67,29.86,10.0,SE,9.2,-,N/A,,Overcast,130,2012-12-08 22:15:00
4:35 PM,40.1,30.6,69,29.87,10.0,SE,5.8,-,N/A,,Overcast,140,2012-12-08 22:35:00
4:55 PM,40.1,31.1,70,29.85,10.0,SE,6.9,-,N/A,,Overcast,130,2012-12-08 22:55:00
5:15 PM,39.7,31.1,71,29.85,10.0,SE,8.1,-,N/A,,Overcast,130,2012-12-08 23:15:00
5:35 PM,40.1,31.5,71,29.85,10.0,SE,8.1,-,N/A,,Overcast,130,2012-12-08 23:35:00
5:55 PM,40.1,31.6,72,29.86,10.0,SE,6.9,-,N/A,,Overcast,130,2012-12-08 23:55:00
6:15 PM,40.1,31.6,72,29.86,10.0,ESE,6.9,-,N/A,,Overcast,120,2012-12-09 00:15:00
6:35 PM,39.7,31.6,73,29.86,10.0,ESE,5.8,-,N/A,,Overcast,120,2012-12-09 00:35:00
6:55 PM,39.0,31.3,74,29.85,10.0,ESE,5.8,-,N/A,,Scattered Clouds,120,2012-12-09 00:55:00
7:15 PM,37.9,31.1,76,29.85,10.0,ESE,4.6,-,N/A,,Clear,120,2012-12-09 01:15:00
7:35 PM,37.4,32.0,81,29.86,10.0,SE,6.9,-,N/A,,Clear,130,2012-12-09 01:35:00
7:55 PM,37.0,31.1,79,29.86,10.0,SE,5.8,-,N/A,,Clear,130,2012-12-09 01:55:00
8:15 PM,37.2,31.1,79,29.86,10.0,ESE,5.8,-,N/A,,Scattered Clouds,120,2012-12-09 02:15:00
8:35 PM,37.4,31.5,79,29.86,10.0,ESE,4.6,-,N/A,,Overcast,110,2012-12-09 02:35:00
8:55 PM,37.8,31.8,79,29.85,10.0,ESE,8.1,-,N/A,,Overcast,120,2012-12-09 02:55:00
9:15 PM,38.7,32.0,77,29.86,10.0,SE,6.9,-,N/A,,Overcast,130,2012-12-09 03:15:00
9:35 PM,39.2,32.0,75,29.86,10.0,SE,4.6,-,N/A,,Overcast,130,2012-12-09 03:35:00
9:55 PM,39.2,32.2,76,29.87,10.0,SSE,5.8,-,N/A,,Overcast,150,2012-12-09 03:55:00
10:15 PM,39.2,32.0,75,29.87,7.0,SSE,4.6,-,N/A,,Overcast,150,2012-12-09 04:15:00
10:35 PM,39.4,32.4,76,29.87,7.0,ESE,3.5,-,N/A,,Overcast,120,2012-12-09 04:35:00
10:55 PM,39.4,32.7,77,29.86,7.0,SE,5.8,-,N/A,,Overcast,140,2012-12-09 04:55:00
11:15 PM,39.6,32.9,77,29.85,7.0,SE,6.9,-,N/A,,Overcast,140,2012-12-09 05:15:00
11:35 PM,39.2,32.9,78,29.85,7.0,SE,4.6,-,N/A,,Mostly Cloudy,140,2012-12-09 05:35:00
11:55 PM,39.4,33.1,78,29.86,7.0,South,4.6,-,N/A,,Overcast,170,2012-12-09 05:55:00